When you browse on this site, cookies collect data to enhance your experience and personalize the content and advertising you see.
Visit our Privacy Policy to learn more. By continuing to use the site, you agree to this use of cookies and data.
  • In Portugal
  • List of Countries
  • For 7 days
  • Water Temperature
  • Satellite Maps
  • Weather Map
  • Weather Widgets
  • user-avatar
    Login

    Hourly Weather Trzebiele

    Today, 27 March, Wednesday

    Time Temperature Precipitation Wind Pressure Humidity
    00:00 0°C° 0 mm 1 mps 750 mmHg 74%
    01:00 0°C° 0 mm 1 mps 751 mmHg 74%
    02:00 0°C° 0 mm 1 mps 751 mmHg 77%
    03:00 -2°C° 0 mm 2 mps 751 mmHg 80%
    04:00 -2°C° 0 mm 2 mps 751 mmHg 84%
    05:00 -1°C° 0 mm 2 mps 751 mmHg 82%
    06:00 +1°C° 0 mm 2 mps 752 mmHg 80%
    07:00 0°C° 0 mm 3 mps 752 mmHg 78%
    08:00 +2°C° 0 mm 3 mps 752 mmHg 72%
    09:00 +3°C° 0 mm 3 mps 752 mmHg 66%
    10:00 +5°C° 0 mm 3 mps 752 mmHg 59%
    11:00 +5°C° 0.1 mm 4 mps 752 mmHg 67%
    12:00 +5°C° 0.1 mm 4 mps 752 mmHg 74%
    13:00 +5°C° 0.1 mm 4 mps 752 mmHg 82%
    14:00 +5°C° 0.4 mm 3 mps 752 mmHg 84%
    15:00 +5°C° 0.4 mm 3 mps 752 mmHg 87%
    16:00 +5°C° 0.4 mm 2 mps 752 mmHg 89%
    17:00 +4°C° 0.2 mm 3 mps 752 mmHg 91%
    18:00 +4°C° 0.2 mm 3 mps 752 mmHg 93%
    19:00 +4°C° 0.2 mm 3 mps 752 mmHg 96%
    20:00 +5°C° 0 mm 2 mps 752 mmHg 96%
    21:00 +5°C° 0 mm 2 mps 752 mmHg 97%
    22:00 +5°C° 0 mm 2 mps 752 mmHg 97%
    23:00 +5°C° 0.1 mm 2 mps 753 mmHg 98%

    Tomorrow, 28 March, Thursday

    Time Temperature Precipitation Wind Pressure Humidity
    00:00 +5°C° 0.1 mm 2 mps 753 mmHg 98%
    01:00 +6°C° 0.1 mm 1 mps 753 mmHg 98%
    02:00 +5°C° 0 mm 1 mps 753 mmHg 98%
    03:00 +5°C° 0 mm 1 mps 753 mmHg 98%
    04:00 +5°C° 0 mm 1 mps 754 mmHg 98%
    05:00 +5°C° 0 mm 1 mps 754 mmHg 97%
    06:00 +5°C° 0 mm 1 mps 754 mmHg 97%
    07:00 +5°C° 0 mm 1 mps 754 mmHg 96%
    08:00 +7°C° 0 mm 1 mps 755 mmHg 87%
    09:00 +9°C° 0 mm 1 mps 756 mmHg 79%
    10:00 +11°C° 0 mm 1 mps 756 mmHg 70%
    11:00 +12°C° 0 mm 1 mps 756 mmHg 65%
    12:00 +12°C° 0 mm 1 mps 756 mmHg 60%
    13:00 +13°C° 0 mm 1 mps 757 mmHg 55%
    14:00 +13°C° 0 mm 2 mps 757 mmHg 55%
    15:00 +13°C° 0 mm 2 mps 756 mmHg 56%
    16:00 +13°C° 0 mm 2 mps 756 mmHg 56%
    17:00 +12°C° 0 mm 2 mps 757 mmHg 65%
    18:00 +9°C° 0 mm 2 mps 757 mmHg 74%
    19:00 +7°C° 0 mm 2 mps 757 mmHg 83%
    20:00 +6°C° 0 mm 2 mps 757 mmHg 87%
    21:00 +6°C° 0 mm 2 mps 757 mmHg 90%
    22:00 +5°C° 0 mm 2 mps 757 mmHg 93%
    23:00 +5°C° 0 mm 2 mps 757 mmHg 94%

    Day after tomorrow, 29 March, Friday

    Time Temperature Precipitation Wind Pressure Humidity
    00:00 +5°C° 0 mm 2 mps 757 mmHg 95%
    01:00 +5°C° 0 mm 2 mps 757 mmHg 97%
    02:00 +5°C° 0 mm 2 mps 757 mmHg 97%
    03:00 +4°C° 0 mm 3 mps 757 mmHg 97%
    04:00 +5°C° 0 mm 3 mps 757 mmHg 97%
    05:00 +5°C° 0 mm 3 mps 757 mmHg 96%
    06:00 +5°C° 0 mm 3 mps 757 mmHg 96%
    07:00 +5°C° 0 mm 3 mps 757 mmHg 95%
    08:00 +8°C° 0 mm 3 mps 757 mmHg 90%
    09:00 +9°C° 0 mm 3 mps 757 mmHg 86%
    10:00 +10°C° 0 mm 3 mps 757 mmHg 81%
    11:00 +11°C° 0 mm 4 mps 757 mmHg 73%
    12:00 +12°C° 0 mm 4 mps 756 mmHg 66%
    13:00 +14°C° 0 mm 5 mps 756 mmHg 58%
    14:00 +13°C° 0 mm 4 mps 756 mmHg 59%
    15:00 +13°C° 0 mm 4 mps 756 mmHg 59%
    16:00 +13°C° 0 mm 4 mps 755 mmHg 60%
    17:00 +11°C° 0 mm 4 mps 755 mmHg 67%
    18:00 +10°C° 0 mm 3 mps 755 mmHg 75%
    19:00 +9°C° 0 mm 2 mps 754 mmHg 83%
    20:00 +8°C° 0 mm 2 mps 754 mmHg 85%
    21:00 +8°C° 0 mm 2 mps 754 mmHg 88%
    22:00 +8°C° 0 mm 2 mps 754 mmHg 91%
    23:00 +8°C° 0 mm 3 mps 754 mmHg 92%

    30 March, Saturday

    Time Temperature Precipitation Wind Pressure Humidity
    00:00 +7°C° 0 mm 3 mps 754 mmHg 92%
    01:00 +7°C° 0 mm 3 mps 754 mmHg 92%
    02:00 +7°C° 0 mm 3 mps 753 mmHg 93%
    03:00 +7°C° 0 mm 3 mps 753 mmHg 94%
    04:00 +5°C° 0 mm 3 mps 753 mmHg 95%
    05:00 +5°C° 0 mm 3 mps 753 mmHg 93%
    06:00 +7°C° 0 mm 3 mps 753 mmHg 91%
    07:00 +7°C° 0 mm 3 mps 753 mmHg 89%
    08:00 +8°C° 0 mm 4 mps 753 mmHg 79%
    09:00 +10°C° 0 mm 4 mps 753 mmHg 70%
    10:00 +12°C° 0 mm 4 mps 752 mmHg 61%
    11:00 +13°C° 0 mm 4 mps 752 mmHg 60%
    12:00 +14°C° 0 mm 4 mps 752 mmHg 58%
    13:00 +15°C° 0 mm 4 mps 751 mmHg 57%
    14:00 +15°C° 0 mm 4 mps 750 mmHg 59%
    15:00 +14°C° 0 mm 3 mps 750 mmHg 61%
    16:00 +14°C° 0 mm 3 mps 749 mmHg 63%
    17:00 +13°C° 0 mm 3 mps 749 mmHg 67%
    18:00 +13°C° 0 mm 2 mps 748 mmHg 72%
    19:00 +12°C° 0 mm 2 mps 748 mmHg 77%
    20:00 +10°C° 0 mm 2 mps 748 mmHg 79%
    21:00 +10°C° 0 mm 2 mps 747 mmHg 81%
    22:00 +9°C° 0 mm 2 mps 747 mmHg 84%
    23:00 +9°C° 0 mm 2 mps 746 mmHg 84%

    31 March, Sunday

    Time Temperature Precipitation Wind Pressure Humidity
    00:00 +8°C° 0 mm 3 mps 746 mmHg 84%
    01:00 +8°C° 0 mm 3 mps 745 mmHg 84%
    02:00 +8°C° 0.1 mm 3 mps 745 mmHg 85%
    03:00 +8°C° 0.1 mm 3 mps 744 mmHg 86%
    04:00 +8°C° 0.1 mm 3 mps 744 mmHg 86%
    05:00 +8°C° 0.1 mm 3 mps 744 mmHg 86%
    06:00 +7°C° 0.1 mm 4 mps 744 mmHg 86%
    07:00 +7°C° 0.1 mm 4 mps 743 mmHg 86%
    08:00 +8°C° 0 mm 5 mps 744 mmHg 80%
    09:00 +8°C° 0 mm 5 mps 744 mmHg 74%
    10:00 +9°C° 0 mm 6 mps 744 mmHg 68%
    11:00 +8°C° 0.1 mm 6 mps 744 mmHg 65%
    12:00 +7°C° 0.1 mm 6 mps 744 mmHg 63%
    13:00 +7°C° 0.1 mm 6 mps 744 mmHg 60%
    14:00 +5°C° 0 mm 6 mps 745 mmHg 60%
    15:00 +4°C° 0 mm 7 mps 745 mmHg 60%
    16:00 +4°C° 0 mm 7 mps 746 mmHg 60%
    17:00 +3°C° 0.1 mm 6 mps 746 mmHg 66%
    18:00 +1°C° 0.1 mm 6 mps 747 mmHg 71%
    19:00 0°C° 0.1 mm 5 mps 748 mmHg 76%
    20:00 0°C° 0.1 mm 5 mps 749 mmHg 74%
    21:00 0°C° 0.1 mm 4 mps 749 mmHg 71%
    22:00 0°C° 0.1 mm 4 mps 750 mmHg 68%
    23:00 0°C° 0 mm 3 mps 750 mmHg 70%

    1 April, Monday

    Time Temperature Precipitation Wind Pressure Humidity
    00:00 -1°C° 0 mm 3 mps 750 mmHg 72%
    01:00 -1°C° 0 mm 2 mps 751 mmHg 75%
    02:00 -2°C° 0 mm 2 mps 751 mmHg 76%
    03:00 -2°C° 0 mm 2 mps 751 mmHg 77%
    04:00 -2°C° 0 mm 2 mps 752 mmHg 78%
    05:00 -1°C° 0 mm 2 mps 752 mmHg 75%
    06:00 0°C° 0 mm 3 mps 752 mmHg 72%
    07:00 0°C° 0 mm 3 mps 753 mmHg 68%
    08:00 +1°C° 0 mm 3 mps 753 mmHg 62%
    09:00 +3°C° 0 mm 3 mps 754 mmHg 57%
    10:00 +4°C° 0 mm 3 mps 754 mmHg 51%
    11:00 +4°C° 0 mm 3 mps 754 mmHg 49%
    12:00 +5°C° 0 mm 3 mps 754 mmHg 47%
    13:00 +5°C° 0 mm 3 mps 754 mmHg 45%
    14:00 +5°C° 0 mm 3 mps 753 mmHg 46%
    15:00 +5°C° 0 mm 3 mps 753 mmHg 46%
    16:00 +4°C° 0 mm 3 mps 753 mmHg 47%
    17:00 +4°C° 0 mm 2 mps 752 mmHg 54%
    18:00 +3°C° 0 mm 2 mps 752 mmHg 60%
    19:00 +1°C° 0 mm 2 mps 752 mmHg 66%
    20:00 +2°C° 0 mm 1 mps 752 mmHg 69%
    21:00 +1°C° 0 mm 1 mps 752 mmHg 71%
    22:00 0°C° 0 mm 1 mps 751 mmHg 74%
    23:00 0°C° 0 mm 1 mps 751 mmHg 75%
    Show more